Regional Weather Roundup
Issued by NWS

Home | Current Version | Previous Version | Graphics & Text | Print | Product List | Glossary On
Versions: 1 2 3 4 5 6 7 8 9 10 11 12 13 14 15 16 17 18 19 20 21 22 23 24 25 26 27 28 29 30 31 32 33 34 35 36 37 38 39 40 41 42 43 44 45 46 47 48 49 50
000
ASUS43 KMKX 300500
RWRWI

WISCONSIN REGIONAL WEATHER ROUNDUP
NATIONAL WEATHER SERVICE MILWAUKEE/SULLIVAN WI
1200 AM CDT SAT JUL 30 2016

NOTE: "FAIR" INDICATES FEW OR NO CLOUDS BELOW 12,000 FEET WITH NO
SIGNIFICANT WEATHER AND/OR OBSTRUCTIONS TO VISIBILITY.

WIZ001-002-006>008-014>016-023>028-300600-
NORTHWEST WISCONSIN

CITY           SKY/WX    TMP DP  RH WIND       PRES   REMARKS
SUPERIOR ARPT  CLEAR     58  57  97 NE3       30.07S
ASHLAND        CLEAR     53  52  96 W3        30.07S
HAYWARD        PTCLDY    58  54  86 N3        30.07R
SIREN          NOT AVBL
CUMBERLAND     CLEAR     61  55  82 NE5       30.06S
RICE LAKE      CLEAR     62  57  86 CALM      30.06S
CHETEK         PTCLDY    65  59  79 NE3       30.05R
LADYSMITH      CLEAR     62  58  86 NE3       30.07S
EAU CLAIRE     NOT AVBL
MENOMONIE      CLEAR     65  60  83 CALM      30.04R
NEW RICHMOND   MOCLDY    63  61  94 NE3       30.04S
OSCEOLA        CLEAR     61  61 100 CALM      30.07R
$$

WIZ003>005-009-010-017-018-300600-
NORTH CENTRAL WISCONSIN

CITY           SKY/WX    TMP DP  RH WIND       PRES   REMARKS
MANITOWISH WTR CLEAR     58  57  96 CALM      30.08S
ARBOR VITAE    MOCLDY    63  60  89 CALM      30.08S
WOODRUFF       MOCLDY    63  60  89 CALM      30.08S
RHINELANDER    CLEAR     58  56  93 CALM      30.09R
EAGLE RIVER    CLEAR     62  59  87 CALM      30.09S
LAND O LAKES   PTCLDY    62  53  72 E3        30.11S
PHILLIPS       PTCLDY    59  59  97 CALM      30.06S
TOMAHAWK         N/A     55  54  95 CALM      30.08S FOG
MEDFORD        CLEAR     58  58 100 E3        30.07R
MERRILL        CLEAR     57  57 100 CALM      30.07F FOG
$$

WIZ029-030-035-036-043>047-300600-
CENTRAL WISCONSIN

CITY           SKY/WX    TMP DP  RH WIND       PRES   REMARKS
WAUSAU         CLEAR     61  59  93 CALM      30.05S
MOSINEE        CLEAR     59  55  88 NE5       30.06S
MARSHFIELD     CLEAR     63  58  83 E5        30.05R
STEVENS POINT  CLEAR     58  57  98 N3        30.05S
WAUPACA        CLOUDY    66  62  89 N3        30.03S
WAUTOMA        CLOUDY    64  62  93 CALM      30.03S
WISC RAPIDS    CLEAR     63  58  83 E3        30.05S
CAMP DOUGLAS   FOG       61  61 100 E1        30.02S VSB 3/4
$$

WIZ011>013-019>022-031-037>040-048>050-300600-
NORTHEAST WISCONSIN

CITY           SKY/WX    TMP DP  RH WIND       PRES   REMARKS
ANTIGO         CLEAR     55  54  98 CALM      30.08S
SHAWANO        CLOUDY    69  59  70 NE5       30.05S
OCONTO         MOCLDY    62  62 100 NE3       30.03F
STURGEON BAY   CLEAR     65  58  78 N3        30.04F
GREEN BAY      MOCLDY    65  58  78 NE7       30.03S
MANITOWOC      NOT AVBL
APPLETON       CLOUDY    66  50  55 NE7       30.01S
CLINTONVILLE   CLOUDY    64  55  72 CALM      30.03F
OSHKOSH        CLOUDY    70  55  59 E9        30.01F
$$

WIZ032>034-041-042-053>061-300600-
SOUTHWEST WISCONSIN

CITY           SKY/WX    TMP DP  RH WIND       PRES   REMARKS
LA CROSSE      CLOUDY    68  65  90 N3        30.01S
SPARTA         CLEAR     61  60  99 CALM      30.03S
VIROQUA        PTCLDY    64  64 100 NE3       30.02F
BOSCOBEL       CLEAR     66  64  93 CALM      30.00S FOG
PRAIRIE DU CHI CLOUDY    67  64  89 CALM      29.99S
PLATTEVILLE    PTCLDY    66  66 100 NE3       30.00S
$$

WIZ056-057-062-063-064-067-068-300600-
SOUTH CENTRAL WISCONSIN

CITY           SKY/WX    TMP DP  RH WIND       PRES   REMARKS
REEDSBURG      PTCLDY    66  65  97 NE3       30.01R
BARABOO/DELLS  CLOUDY    64  62  91 NE5       30.02S
LONE ROCK      NOT AVBL
MINERAL POINT  CLEAR     68  64  88 NE6       30.00S
MADISON        CLOUDY    66  61  84 N6        29.99F
MIDDLETON      PTCLDY    64  63  96 CALM      30.00F
WATERTOWN      CLOUDY    66  63  87 NE7       29.99S
MONROE         DRIZZLE   64  63  94 NE6       29.99R
JANESVILLE     CLOUDY    68  63  83 NE8       29.98S
$$

WIZ051-052-058>065-066-070>072-300600-
SOUTHEAST WISCONSIN

CITY           SKY/WX    TMP DP  RH WIND       PRES   REMARKS
MILWAUKEE      CLOUDY    71  65  81 E8        29.98S
WAUKESHA       CLOUDY    64  61  88 NE6       30.00S
MILWAUKEE/TIMM CLOUDY    68  61  77 NE5       30.00R
RACINE         CLOUDY    71  65  81 E8        29.99S
BURLINGTON     CLOUDY    65  63  94 CALM      29.99R
KENOSHA        CLOUDY    69  66  90 N3        29.98S
FOND DU LAC    MOCLDY    68  55  63 E3        30.01F
SHEBOYGAN      MOCLDY    65  60  84 N5        30.01S
WEST BEND      CLOUDY    64  61  88 CALM      30.01R
JUNEAU         CLOUDY    65  59  82 N5        30.02S
$$

LSZ147-162-300600-
LAKE SUPERIOR

STATION/POSITION TIME  TEMP    WIND        PRES    WAVE
                       AIR SEA DIR/SP/G            HT/PER
                 (UTC) (F)     (DEG/KT/KT) (MB)    (FT/S)
W MID LAKE BUOY  0350   64 62  120/  6/  8 1017.6F   1
DEVILS ISLAND    0400   65     110/  2/  3 1018.1S
PORT WING        0440   58      CALM  /  3 1018.3R
SAXON HARBOR     0400   59     190/  3/  4 1017.6F
$$

LMZ867-665-643>646-300600-
LAKE MICHIGAN

STATION/POSITION TIME  TEMP    WIND        PRES    WAVE
                       AIR SEA DIR/SP/G            HT/PER
                 (UTC) (F)     (DEG/KT/KT) (MB)    (FT/S)
CHAMBERS ISLAND  0400   70      40/  6/ 10 1017.3S
S GREEN BAY BUOY 0430   69 70   60/ 12/ 14 1016.2F
N MID LAKE BUOY  0350   70 70   80/ 10/ 12 1016.8F   1/ 3
NORTHPORT PIER   0400   71      70/  9/ 11 1017.3F
SISTER BAY       0421   66     100/  1/  5   N/A
ALGOMA LAKESHORE 0313           20/  8/ 11   N/A
KEWAUNEE LAKESHO 0400   67      20/  4/  6 1016.3F
SHEBOYGAN LAKESH 0400   66     360/ 10/ 11 1016.2F
PORT WASHINGTON  0400   70      40/  8/ 11 1016.3F
ATWATER BUOY     0400   66 62   40/  6/  8 1016.8F
MILWAUKEE LAKESH 0410   68      30/  9/  9   N/A
S MID LAKE BUOY  0350   72 74   70/ 16/ 19 1013.8F   3/ 4
KENOSHA   LAKESH 0400   72      70/  8/  9 1014.6S
$$

TC  - TEMPERATURE IN CELSIUS
VSB - VISIBILITY IN STATUTE MILES
WCI - WIND CHILL INDEX
HX  - HEAT INDEX





USA.gov is the U.S. government's official web portal to all federal, state and local government web resources and services.